Weather History for Flag Island, MN

Change the Weather History Date:

Tuesday, October 30, 2012

  Actual Average Record
Temperature  
Mean Temperature 38 °F -  
Max Temperature 42 °F 37 °F 64 °F (2008)
Min Temperature 35 °F 29 °F 10 °F (1996)
Degree Days  
Heating Degree Days 26    
Moisture  
Dew Point 30 °F    
Average Humidity 72    
Maximum Humidity 87    
Minimum Humidity 61    
Precipitation  
Precipitation 0.00 in - - ()
Sea Level Pressure  
Sea Level Pressure 30.20 in    
Wind  
Wind Speed 8 mph (SE)    
Max Wind Speed 13 mph    
Max Gust Speed 17 mph    
Visibility 10 miles    
Events      
Averages and records for this station are not official NWS values.
T = Trace of Precipitation, MM = Missing Value Source: NWS Daily Summary

Daily Weather History Graph

Daily Weather History Graph

Search for Another Location

Airport:

Trip Planner

Search our weather history database for the weather conditions in past years. The results will help you decide how hot, cold, wet, or windy it might be!

Date:

Astronomy

Oct. 30, 2012 Rise Set
Actual Time 8:05 AM CDT 6:00 PM CDT
Civil Twilight 7:31 AM CDT 6:33 PM CDT
Nautical Twilight 6:54 AM CDT 7:11 PM CDT
Astronomical Twilight 6:17 AM CDT 7:48 PM CDT
Moon 6:22 PM CDT (10/30) 8:59 AM CDT (10/30)
Length of Visible Light 11h 01m
Length of Day
9h 55m
Full, 99% of the Moon is Illuminated
Oct 30
Full
Nov 6
Last Quarter
Nov 13
New
Nov 20
First Quarter
Nov 28
Full

Hourly Weather History & Observations

Time (CDT) Temp. Windchill Dew Point Humidity Pressure Visibility Wind Dir Wind Speed Gust Speed Precip Events Conditions
12:13 AM 37.4 °F 32.1 °F 33.8 °F 87% 30.25 in 10.0 mi SE 6.9 mph 16.1 mph N/A   Clear
12:33 AM 37.4 °F 30.8 °F 33.8 °F 87% 30.25 in 10.0 mi SE 9.2 mph - N/A   Clear
12:54 AM 39.2 °F 33.0 °F 32.0 °F 75% 30.25 in 10.0 mi SE 9.2 mph - N/A   Clear
1:13 AM 39.2 °F 33.6 °F 32.0 °F 75% 30.25 in 10.0 mi SE 8.1 mph - N/A   Clear
1:33 AM 39.2 °F 33.0 °F 32.0 °F 75% 30.25 in 10.0 mi SE 9.2 mph 16.1 mph N/A   Clear
1:54 AM 39.2 °F 33.0 °F 32.0 °F 75% 30.25 in 10.0 mi SE 9.2 mph 17.3 mph N/A   Clear
2:13 AM 39.2 °F 33.6 °F 30.2 °F 70% 30.25 in 10.0 mi SE 8.1 mph - N/A   Clear
2:33 AM 37.4 °F 30.8 °F 30.2 °F 75% 30.25 in 10.0 mi ESE 9.2 mph - N/A   Clear
2:54 AM 37.4 °F 30.8 °F 32.0 °F 81% 30.25 in 10.0 mi SE 9.2 mph - N/A   Clear
3:33 AM 37.4 °F 30.3 °F 32.0 °F 81% 30.24 in 10.0 mi SE 10.4 mph - N/A   Clear
3:53 AM 37.4 °F 32.1 °F 30.2 °F 75% 30.24 in 10.0 mi SE 6.9 mph - N/A   Clear
4:13 AM 37.4 °F 32.8 °F 30.2 °F 75% 30.24 in 10.0 mi SE 5.8 mph - N/A   Clear
4:33 AM 37.4 °F 31.4 °F 30.2 °F 75% 30.24 in 10.0 mi SE 8.1 mph - N/A   Clear
4:53 AM 37.4 °F 32.1 °F 30.2 °F 75% 30.24 in 10.0 mi SE 6.9 mph - N/A   Clear
5:33 AM 37.4 °F 31.4 °F 30.2 °F 75% 30.24 in 10.0 mi SE 8.1 mph - N/A   Clear
5:53 AM 37.4 °F 30.3 °F 30.2 °F 75% 30.24 in 10.0 mi SE 10.4 mph 16.1 mph N/A   Clear
6:13 AM 37.4 °F 30.3 °F 30.2 °F 75% 30.25 in 10.0 mi SE 10.4 mph - N/A   Clear
6:33 AM 37.4 °F 29.3 °F 28.4 °F 70% 30.24 in 10.0 mi SE 12.7 mph - N/A   Clear
6:53 AM 35.6 °F 29.2 °F 28.4 °F 75% 30.25 in 10.0 mi SE 8.1 mph - N/A   Clear
7:13 AM 35.6 °F 29.2 °F 28.4 °F 75% 30.25 in 10.0 mi SE 8.1 mph - N/A   Clear
7:33 AM 35.6 °F 28.6 °F 28.4 °F 75% 30.24 in 10.0 mi SE 9.2 mph - N/A   Clear
7:53 AM 35.6 °F 27.5 °F 28.4 °F 75% 30.24 in 10.0 mi SE 11.5 mph - N/A   Clear
8:13 AM 35.6 °F 27.5 °F 28.4 °F 75% 30.24 in 10.0 mi SE 11.5 mph - N/A   Clear
8:33 AM 35.6 °F 29.2 °F 28.4 °F 75% 30.24 in 10.0 mi SE 8.1 mph 17.3 mph N/A   Clear
8:54 AM 35.6 °F 28.6 °F 28.4 °F 75% 30.24 in 10.0 mi SE 9.2 mph - N/A   Clear
9:13 AM 35.6 °F 29.2 °F 28.4 °F 75% 30.24 in 10.0 mi SE 8.1 mph - N/A   Clear
9:33 AM 35.6 °F 29.2 °F 28.4 °F 75% 30.24 in 10.0 mi SE 8.1 mph - N/A   Clear
10:13 AM 37.4 °F 30.8 °F 30.2 °F 75% 30.24 in 10.0 mi SE 9.2 mph - N/A   Clear
10:33 AM 37.4 °F 30.8 °F 28.4 °F 70% 30.24 in 10.0 mi SE 9.2 mph - N/A   Clear
10:54 AM 37.4 °F 30.3 °F 28.4 °F 70% 30.24 in 10.0 mi SE 10.4 mph - N/A   Clear
11:13 AM 37.4 °F 32.1 °F 30.2 °F 75% 30.24 in 10.0 mi SSE 6.9 mph - N/A   Clear
11:54 AM 39.2 °F 35.9 °F 30.2 °F 70% 30.24 in 10.0 mi SE 4.6 mph - N/A   Clear
12:13 PM 39.2 °F 35.0 °F 30.2 °F 70% 30.24 in 10.0 mi ESE 5.8 mph - N/A   Clear
12:33 PM 39.2 °F 33.0 °F 30.2 °F 70% 30.23 in 10.0 mi ESE 9.2 mph - N/A   Clear
12:53 PM 39.2 °F 32.5 °F 30.2 °F 70% 30.23 in 10.0 mi ESE 10.4 mph - N/A   Clear
1:14 PM 39.2 °F 33.6 °F 30.2 °F 70% 30.22 in 10.0 mi ESE 8.1 mph - N/A   Clear
1:33 PM 41.0 °F 35.8 °F 30.2 °F 65% 30.22 in 10.0 mi ESE 8.1 mph - N/A   Clear
1:54 PM 41.0 °F 35.8 °F 30.2 °F 65% 30.21 in 10.0 mi ESE 8.1 mph - N/A   Clear
2:13 PM 41.0 °F 36.4 °F 30.2 °F 65% 30.21 in 10.0 mi ESE 6.9 mph - N/A   Clear
2:33 PM 42.8 °F 38.6 °F 30.2 °F 61% 30.20 in 10.0 mi ESE 6.9 mph - N/A   Clear
2:53 PM 41.0 °F 38.0 °F 32.0 °F 70% 30.19 in 10.0 mi ESE 4.6 mph - N/A   Clear
3:14 PM 42.8 °F 37.5 °F 30.2 °F 61% 30.18 in 10.0 mi ESE 9.2 mph - N/A   Clear
3:33 PM 42.8 °F 40.1 °F 30.2 °F 61% 30.18 in 10.0 mi East 4.6 mph - N/A   Clear
3:53 PM 42.8 °F 38.6 °F 30.2 °F 61% 30.18 in 10.0 mi ESE 6.9 mph - N/A   Clear
4:13 PM 42.8 °F 37.5 °F 30.2 °F 61% 30.18 in 10.0 mi ESE 9.2 mph - N/A   Clear
4:33 PM 42.8 °F 38.0 °F 30.2 °F 61% 30.18 in 10.0 mi ESE 8.1 mph - N/A   Clear
4:54 PM 42.8 °F 38.0 °F 30.2 °F 61% 30.18 in 10.0 mi ESE 8.1 mph - N/A   Clear
5:13 PM 42.8 °F 39.3 °F 30.2 °F 61% 30.17 in 10.0 mi ESE 5.8 mph - N/A   Clear
5:33 PM 41.0 °F 38.0 °F 30.2 °F 65% 30.17 in 10.0 mi ESE 4.6 mph - N/A   Clear
6:13 PM 39.2 °F 35.9 °F 30.2 °F 70% 30.17 in 10.0 mi East 4.6 mph - N/A   Clear
6:33 PM 39.2 °F 35.9 °F 30.2 °F 70% 30.16 in 10.0 mi East 4.6 mph - N/A   Clear
7:13 PM 39.2 °F 35.0 °F 30.2 °F 70% 30.15 in 10.0 mi East 5.8 mph - N/A   Clear
7:33 PM 39.2 °F 35.9 °F 30.2 °F 70% 30.15 in 10.0 mi East 4.6 mph - N/A   Clear
7:54 PM 39.2 °F 35.9 °F 30.2 °F 70% 30.15 in 10.0 mi East 4.6 mph - N/A   Clear
8:13 PM 37.4 °F 32.8 °F 30.2 °F 75% 30.14 in 10.0 mi East 5.8 mph - N/A   Clear
8:33 PM 37.4 °F 33.8 °F 30.2 °F 75% 30.13 in 10.0 mi East 4.6 mph - N/A   Clear
8:53 PM 37.4 °F 33.8 °F 30.2 °F 75% 30.12 in 10.0 mi East 4.6 mph - N/A   Clear
9:13 PM 37.4 °F 32.8 °F 30.2 °F 75% 30.12 in 10.0 mi East 5.8 mph - N/A   Clear
9:33 PM 37.4 °F 32.1 °F 30.2 °F 75% 30.12 in 10.0 mi ESE 6.9 mph - N/A   Clear
9:52 PM 37.4 °F 32.1 °F 30.2 °F 75% 30.12 in 10.0 mi ESE 6.9 mph - N/A   Clear
10:13 PM 37.4 °F 32.1 °F 28.4 °F 70% 30.12 in 10.0 mi ESE 6.9 mph - N/A   Clear
10:33 PM 37.4 °F 32.1 °F 26.6 °F 65% 30.13 in 10.0 mi ESE 6.9 mph - N/A   Clear
10:53 PM 37.4 °F 32.8 °F 26.6 °F 65% 30.13 in 10.0 mi ESE 5.8 mph - N/A   Clear
11:13 PM 35.6 °F 29.9 °F 26.6 °F 70% 30.12 in 10.0 mi ESE 6.9 mph - N/A   Clear
11:34 PM 35.6 °F 28.6 °F 26.6 °F 70% 30.12 in 10.0 mi SE 9.2 mph - N/A   Clear
11:53 PM 35.6 °F 29.9 °F 26.6 °F 70% 30.12 in 10.0 mi SE 6.9 mph - N/A   Scattered Clouds